Pratham
1 41783U 16059A 16350.70646156 .00000068 00000-0 22701-4 0 9994
2 41783 98.1942 47.7258 0033965 18.1490 342.0915 14.62789093 11779
OBJECT B
1 41784U 16059B 16350.41324892 .00000128 00000-0 34252-4 0 9994
2 41784 98.1944 47.4801 0032373 18.9633 341.2767 14.63154779 11709
OBJECT C
1 41785U 16059C 16350.81934334 .00000017 00000-0 12728-4 0 9998
2 41785 98.1943 47.8908 0032120 17.1211 343.1053 14.63216560 11766
OBJECT D
1 41786U 16059D 16350.91518996 .00000129 00000-0 32185-4 0 9995
2 41786 98.2216 48.6368 0001361 89.8023 270.3329 14.66314225 11802
OBJECT E
1 41787U 16059E 16350.73741909 .00000122 00000-0 32841-4 0 9990
2 41787 98.1941 47.8420 0030996 16.9067 343.3164 14.63471181 11756
OBJECT F
1 41788U 16059F 16350.38578227 .00000057 00000-0 20375-4 0 9999
2 41788 98.1946 47.5137 0030164 20.6583 339.5816 14.63651263 11703
AlSat 1N
1 41789U 16059G 16350.70922563 .00000149 00000-0 37684-4 0 9995
2 41789 98.1944 47.8801 0028818 13.8251 346.3730 14.63988346 11764
ScatSat
1 41790U 16059H 16350.71936907 .00000047 00000-0 22921-4 0 9990
2 41790 98.0931 42.2654 0011078 359.2496 0.8680 14.50086145 11672
OBJECT J
1 41791U 16059J 16350.27032129 .00000042 00000-0 18608-4 0 9997
2 41791 98.2654 47.5974 0043188 25.6443 334.6886 14.60751960 11696
OBJECT K
1 41792U 16059K 16349.81439872 .00000338 00000-0 73323-4 0 9995
2 41792 98.1953 47.0148 0028023 20.9622 339.2723 14.64128430 11622
TY-1
1 41844U 16066D 16350.82987446 -.00000070 00000-0 00000 0 0 9990
2 41844 97.4056 354.8400 0017171 155.2704 328.0561 15.21529561 5455
CAS-2T
1 41845U 16066E 16350.66661524 -.00000066 00000-0 00000 0 0 9994
2 41845 98.7825 355.8780 0368174 72.9137 291.2047 14.37667334 5124
Pegasus-1
1 41846U 16066F 16350.68827664 -.00000066 00000-0 00000 0 0 9996
2 41846 98.7848 355.8624 0371035 73.4187 290.7401 14.36802562 5129
/EX
1
0
SB KEPS @ AMSAT $ORB16343.N
2Line Orbital Elements 16343.AMSAT
HR AMSAT ORBITAL ELEMENTS FOR AMATEUR SATELLITES IN NASA FORMAT
FROM WA5QGD FORT WORTH,TX December 8, 2016
BID: ORB16343.N
DECODE 2-LINE ELSETS WITH THE FOLLOWING KEY:
1 AAAAAU 00 0 0 BBBBB.BBBBBBBB .CCCCCCCC 00000-0 00000-0 0 DDDZ
2 AAAAA EEE.EEEE FFF.FFFF GGGGGGG HHH.HHHH III.IIII JJ.JJJJJJJJKKKKKZ
KEY: A-CATALOGNUM B-EPOCHTIME C-DECAY D-ELSETNUM E-INCLINATION F-RAAN
G-ECCENTRICITY H-ARGPERIGEE I-MNANOM J-MNMOTION K-ORBITNUM Z-CHECKSUM
TO ALL RADIO AMATEURS BT
AO-07
1 07530U 74089B 16343.44041755 -.00000018 00000-0 16584-3 0 9997
2 07530 101.6020 310.1123 0012051 334.0491 141.9221 12.53624524924954
FO-29
1 24278U 96046B 16342.72114487 -.00000023 00000-0 96480-5 0 9996
2 24278 98.5835 245.2103 0351316 113.2483 250.6051 13.53072486 2988
RS-22
1 27939U 03042A 16343.40656834 .00000174 00000-0 39763-4 0 9996
2 27939 97.9114 128.6346 0014285 110.2753 305.9432 14.66497208705355
AO-73
1 39444U 13066AE 16342.71148144 .00000489 00000-0 67411-4 0 9990
2 39444 97.6589 28.7778 0058980 172.1548 188.0602 14.81275857163268
EO-79
1 40025U 14033R 16343.21076219 .00000456 00000-0 55416-4 0 9997
2 40025 97.9198 248.5262 0011805 207.5149 152.5444 14.88240606134088
XW-2A
1 40903U 15049E 16343.38556538 .00003615 00000-0 99724-4 0 9995
2 40903 97.4374 0.7104 0014008 226.7184 133.2893 15.37683834 68312
XW-2C
1 40906U 15049H 16343.40751385 .00001269 00000-0 73037-4 0 9990
2 40906 97.4540 346.7950 0016192 149.9541 210.2623 15.14116889 67368
LILACSAT-2
1 40908U 15049K 16343.35205530 .00000758 00000-0 46640-4 0 9994
2 40908 97.4607 346.4890 0017181 145.5326 214.7023 15.12863288 67314
UO-11
1 14781U 84021B 16342.73180876 .00000161 00000-0 26169-4 0 9998
2 14781 097.7264 029.2013 0009953 104.9879 255.2437 14.82835558740973
LO-19
1 20442U 90005G 16343.36615143 .00000026 00000-0 25553-4 0 9994
2 20442 98.5590 275.9910 0011749 357.3063 2.8056 14.32841551404296
AO-27
1 22825U 93061C 16342.89385298 .00000029 00000-0 28834-4 0 9996
2 22825 98.7848 300.4220 0008607 163.2721 196.8747 14.29979145210061
IO-26
1 22826U 93061D 16342.89876112 .00000023 00000-0 26188-4 0 9991
2 22826 98.7791 300.5313 0009287 154.7494 205.4144 14.30305996210236
GO-32
1 25397U 98043D 16342.81298359 .00000004 00000-0 20555-4 0 9996
2 25397 098.5883 283.4084 0001381 146.9967 213.1298 14.23610236956344
NO-44
1 26931U 01043C 16342.94952143 -.00000015 00000-0 25912-4 0 9992
2 26931 067.0509 224.6061 0005744 279.2435 080.8017 14.30438406792929
SO-50
1 27607U 02058C 16342.91252918 .00000062 00000-0 29692-4 0 9990
2 27607 064.5556 350.0365 0047225 174.7291 185.4319 14.75258154750766
CO-55
1 27844U 03031E 16343.32331995 .00000093 00000-0 61985-4 0 9999
2 27844 98.6917 349.1043 0009816 173.5756 186.5549 14.22000021697191
CO-57
1 27848U 03031J 16342.91979953 .00000067 00000-0 50690-4 0 9991
2 27848 098.7013 348.8810 0009547 183.4315 176.6798 14.21619898696993
CO-65
1 32785U 08021C 16342.50132974 .00000358 00000-0 44822-4 0 9993
2 32785 97.5854 9.3507 0014688 84.4553 275.8339 14.87747504466397
PRISM
1 33493U 09002B 16343.34240035 .00001432 00000-0 13530-3 0 9996
2 33493 98.1915 211.4431 0015512 357.7782 2.3322 14.95351456427251
TISAT-1
1 36799U 10035E 16342.85313868 .00000795 00000-0 88211-4 0 9996
2 36799 98.0446 96.0000 0011520 231.3238 128.6949 14.90140317347286
ALMASAT-1
1 38078U 12006B 16343.46255976 .00021953 36807-5 26659-3 0 9996
2 38078 69.4451 282.0912 0350036 210.4850 147.5562 15.12635038255857
DUCHIFAT-1
1 40021U 14033M 16343.21105172 .00000659 00000-0 74883-4 0 9998
2 40021 97.9242 250.0485 0012330 205.1574 154.9044 14.89633151134162
NANOSATCBR1
1 40024U 14033Q 16342.65859562 .00000613 00000-0 71182-4 0 9996
2 40024 97.9208 248.6664 0011605 207.2019 152.8592 14.88995648134043
DTUSAT-2
1 40030U 14033W 16343.16794225 .00000435 00000-0 53630-4 0 9994
2 40030 97.9171 247.7826 0011379 201.2905 158.7839 14.87867940134057
ANTELSAT
1 40034U 14033AA 16343.21075459 .00000310 00000-0 54178-4 0 9995
2 40034 97.8818 226.7717 0058893 185.6207 174.4348 14.73559644132801
MET-2/21
1 22782U 93055A 16343.14826271 .00000034 00000-0 17832-4 0 9993
2 22782 82.5475 175.1902 0021368 245.8001 243.1786 13.83794756175275
NOAA-15
1 25338U 98030A 16343.68550274 .00000096 00000-0 40618-4 0 9993
2 25338 98.7837 348.2022 0011214 43.1409 317.1136 14.25767547966186
NOAA-18
1 28654U 05018A 16343.69637039 .00000042 00000-0 23029-4 0 9995
2 28654 99.1942 355.1444 0013637 243.8795 116.1456 14.12317302595271
NOAA-19
1 33591U 09005A 16343.74626682 .00000001 00000-0 45295-6 0 9995
2 33591 99.0645 302.1555 0015001 87.7031 272.6339 14.12132084404264
HUBBLE
1 20580U 90037B 16342.92739584 .00000568 00000-0 24185-4 0 9990
2 20580 028.4686 191.1765 0002593 276.2434 284.4756 15.08615152261287
ISS
1 25544U 98067A 16343.63391904 .00005623 00000-0 85636-4 0 9990
2 25544 51.6413 268.1927 0006087 305.2681 54.8256 15.53833343 32129
CO-58
1 28895U 05043F 16343.12774490 .00000226 00000-0 52309-4 0 9998
2 28895 97.8433 148.4761 0017532 32.2582 327.9690 14.63309926592543
AAUSAT2
1 32788U 08021F 16342.64749595 .00001038 00000-0 10348-3 0 9995
2 32788 97.5833 19.6282 0013230 55.8587 304.3886 14.93583415467080
DO-64
1 32789U 08021G 16343.41137220 .00001819 00000-0 13525-3 0 9995
2 32789 97.5860 39.4845 0013914 37.2721 322.9467 15.04158153468182
